TimeNZDT,TemperatureF,Dew PointF,Humidity,Sea Level PressureIn,VisibilityMPH,Wind Direction,Wind SpeedMPH,Gust SpeedMPH,PrecipitationIn,Events,Conditions,WindDirDegrees,DateUTC
12:00 AM,57.2,51.8,82,30.42,-9999.0,NE,4.6,-,N/A,,Clear,50,2013-03-21 11:00:00
1:00 AM,57.2,53.6,88,30.42,-9999.0,NNE,3.5,-,N/A,,Clear,30,2013-03-21 12:00:00
2:00 AM,57.2,53.6,88,30.42,-9999.0,ESE,2.3,-,N/A,,Clear,120,2013-03-21 13:00:00
3:00 AM,57.2,53.6,88,30.42,-9999.0,ENE,1.2,-,N/A,,Clear,60,2013-03-21 14:00:00
4:00 AM,57.2,53.6,88,30.42,-9999.0,SE,4.6,-,N/A,,Clear,130,2013-03-21 15:00:00
5:00 AM,55.4,53.6,94,30.42,-9999.0,SE,3.5,-,N/A,,Clear,130,2013-03-21 16:00:00
6:00 AM,55.4,53.6,94,30.42,-9999.0,SE,3.5,-,N/A,,Clear,130,2013-03-21 17:00:00
7:00 AM,55.4,53.6,94,30.42,-9999.0,ENE,1.2,-,N/A,,Clear,60,2013-03-21 18:00:00
8:00 AM,57.2,55.4,94,30.45,6.2,ESE,5.8,-,N/A,,Partly Cloudy,120,2013-03-21 19:00:00
9:00 AM,59.0,55.4,88,30.45,-9999.0,NE,3.5,-,N/A,,Clear,40,2013-03-21 20:00:00
10:00 AM,64.4,57.2,77,30.45,6.2,ENE,6.9,-,N/A,,Partly Cloudy,60,2013-03-21 21:00:00
11:00 AM,68.0,55.4,64,30.45,6.2,ENE,6.9,-,N/A,,Partly Cloudy,70,2013-03-21 22:00:00
12:00 PM,69.8,53.6,56,30.45,6.2,NE,8.1,-,N/A,,Partly Cloudy,50,2013-03-21 23:00:00
1:00 PM,71.6,51.8,50,30.42,6.2,North,9.2,-,N/A,,Scattered Clouds,10,2013-03-22 00:00:00
2:00 PM,71.6,51.8,50,30.42,6.2,North,10.4,-,N/A,,Scattered Clouds,10,2013-03-22 01:00:00
3:00 PM,68.0,53.6,60,30.39,6.2,NNE,8.1,-,N/A,,Mostly Cloudy,20,2013-03-22 02:00:00
4:00 PM,69.8,53.6,56,30.39,6.2,NNE,6.9,-,N/A,,Mostly Cloudy,20,2013-03-22 03:00:00
5:00 PM,69.8,55.4,60,30.39,6.2,North,10.4,-,N/A,,Mostly Cloudy,350,2013-03-22 04:00:00
6:00 PM,66.2,55.4,68,30.39,6.2,NNE,6.9,-,N/A,,Scattered Clouds,20,2013-03-22 05:00:00
7:00 PM,66.2,57.2,73,30.39,6.2,NNE,4.6,-,N/A,,Scattered Clouds,20,2013-03-22 06:00:00
8:00 PM,64.4,55.4,73,30.39,6.2,NNW,3.5,-,N/A,,Scattered Clouds,330,2013-03-22 07:00:00
9:00 PM,62.6,57.2,82,30.42,6.2,NW,5.8,-,N/A,,Scattered Clouds,320,2013-03-22 08:00:00
10:00 PM,62.6,57.2,82,30.42,6.2,NW,5.8,-,N/A,,Scattered Clouds,320,2013-03-22 09:00:00
11:00 PM,62.6,57.2,82,30.42,6.2,NW,5.8,-,N/A,,Scattered Clouds,310,2013-03-22 10:00:00